Weather History for Lexington, KY

Change the Weather History Date:

Thursday, July 18, 2013

  Actual Average Record
Temperature  
Mean Temperature 82 °F 76 °F  
Max Temperature 91 °F 86 °F 100 °F (1954)
Min Temperature 73 °F 67 °F 54 °F (1976)
Degree Days  
Heating Degree Days 0 0  
Month to date heating degree days 0 0  
Since 1 June heating degree days 0 11  
Since 1 July heating degree days 0 0  
Cooling Degree Days 17 11  
Month to date cooling degree days 196 198  
Year to date cooling degree days 618 547  
Since 1 June cooling degree days 465 440  
Growing Degree Days 32 (Base 50)    
Moisture  
Dew Point 72 °F    
Average Humidity 70    
Maximum Humidity 87    
Minimum Humidity 52    
Precipitation  
Precipitation T in 0.16 in 2.01 in (1971)
Month to date precipitation 5.85 2.69  
Year to date precipitation 35.25 26.46  
Snow  
Snow 0.00 in 0.00 in - ()
Month to date snowfall 0.0 0.0  
Since 1 June snowfall 0.0 0.0  
Since 1 July snowfall 0.0 0.0  
Snow Depth 0.00 in    
Sea Level Pressure  
Sea Level Pressure 30.15 in    
Wind  
Wind Speed 3 mph (SSE)    
Max Wind Speed 13 mph    
Max Gust Speed 15 mph    
Visibility 8 miles    
Events Rain , Thunderstorm    
T = Trace of Precipitation, MM = Missing Value Source: NWS Daily Summary

Daily Weather History Graph

Daily Weather History Graph

Search for Another Location

Airport:

Trip Planner

Search our weather history database for the weather conditions in past years. The results will help you decide how hot, cold, wet, or windy it might be!

Date:

Astronomy

Jul. 18, 2013 Rise Set
Actual Time 6:30 AM EDT 8:58 PM EDT
Civil Twilight 5:59 AM EDT 9:29 PM EDT
Nautical Twilight 5:22 AM EDT 10:06 PM EDT
Astronomical Twilight 4:40 AM EDT 10:48 PM EDT
Moon 4:55 PM EDT (7/18) 2:18 AM EDT (7/18)
Length of Visible Light 15h 29m
Length of Day
14h 28m
Waxing Gibbous, 77% of the Moon is Illuminated
Jul 18
Waxing Gibbous
Jul 22
Full
Jul 29
Last Quarter
Aug 6
New
Aug 14
First Quarter

Hourly Weather History & Observations

Time (EDT) Temp. Heat Index Dew Point Humidity Pressure Visibility Wind Dir Wind Speed Gust Speed Precip Events Conditions
12:54 AM 75.9 °F - 71.1 °F 85% 30.21 in 8.0 mi Calm Calm - N/A   Clear
1:54 AM 75.0 °F - 71.1 °F 87% 30.20 in 7.0 mi Calm Calm - N/A   Clear
2:54 AM 75.0 °F - 72.0 °F 90% 30.17 in 5.0 mi Calm Calm - N/A   Clear
3:54 AM 75.0 °F - 71.1 °F 87% 30.17 in 5.0 mi Calm Calm - N/A   Clear
4:54 AM 75.0 °F - 71.1 °F 87% 30.17 in 5.0 mi Calm Calm - N/A   Clear
5:54 AM 75.0 °F - 71.1 °F 87% 30.18 in 6.0 mi SSE 4.6 mph - N/A   Mostly Cloudy
6:54 AM 73.9 °F - 72.0 °F 93% 30.19 in 2.5 mi West 3.5 mph - 0.00 in Rain Light Rain
7:10 AM 75.0 °F - 72.0 °F 90% 30.21 in 3.0 mi Calm Calm - 0.00 in Rain Light Rain
7:54 AM 75.9 °F - 72.0 °F 87% 30.18 in 4.0 mi Calm Calm - 0.00 in   Clear
8:54 AM 79.0 °F - 73.0 °F 82% 30.20 in 5.0 mi Calm Calm - 0.00 in   Haze
9:54 AM 82.9 °F 88.8 °F 73.0 °F 72% 30.19 in 8.0 mi Calm Calm - N/A   Clear
10:54 AM 87.1 °F 95.4 °F 73.9 °F 65% 30.18 in 9.0 mi Calm Calm - N/A   Clear
11:54 AM 86.0 °F 95.1 °F 75.0 °F 70% 30.18 in 10.0 mi Variable 4.6 mph - N/A   Mostly Cloudy
12:09 PM 86.0 °F 93.8 °F 73.9 °F 67% 30.21 in 10.0 mi Calm Calm - N/A   Mostly Cloudy
12:15 PM 87.1 °F 95.4 °F 73.9 °F 65% 30.21 in 10.0 mi WSW 3.5 mph - N/A Thunderstorm Thunderstorm
12:54 PM 82.0 °F 87.9 °F 73.9 °F 76% 30.18 in 9.0 mi SE 10.4 mph - N/A Thunderstorm Thunderstorm
1:38 PM 79.0 °F - 73.0 °F 82% 30.20 in 7.0 mi East 6.9 mph - 0.00 in Rain , Thunderstorm Light Rain
1:54 PM 81.0 °F 85.8 °F 73.0 °F 77% 30.16 in 10.0 mi ESE 3.5 mph - 0.00 in Rain , Thunderstorm Light Thunderstorms and Rain
2:14 PM 79.0 °F - 73.0 °F 82% 30.19 in 8.0 mi SE 5.8 mph - 0.00 in Rain , Thunderstorm Light Rain
2:21 PM 78.1 °F - 73.9 °F 87% 30.19 in 8.0 mi SSE 8.1 mph - 0.00 in Rain , Thunderstorm Light Thunderstorms and Rain
2:54 PM 78.1 °F - 70.0 °F 76% 30.14 in 10.0 mi SSE 3.5 mph - 0.00 in   Partly Cloudy
3:54 PM 80.1 °F 83.6 °F 71.1 °F 74% 30.11 in 10.0 mi Calm Calm - N/A   Clear
4:54 PM 89.1 °F 96.0 °F 72.0 °F 57% 30.09 in 10.0 mi Calm Calm - N/A   Clear
5:54 PM 91.0 °F 97.6 °F 71.1 °F 52% 30.07 in 10.0 mi NNE 4.6 mph - N/A   Clear
6:54 PM 89.1 °F 97.0 °F 73.0 °F 59% 30.06 in 10.0 mi North 3.5 mph - N/A   Clear
7:54 PM 84.9 °F 93.3 °F 75.0 °F 72% 30.06 in 10.0 mi Calm Calm - N/A   Clear
8:54 PM 82.0 °F 88.6 °F 75.0 °F 79% 30.06 in 9.0 mi Calm Calm - N/A   Clear
9:54 PM 79.0 °F - 70.0 °F 74% 30.08 in 10.0 mi SSW 5.8 mph - N/A   Clear
10:54 PM 77.0 °F - 66.9 °F 71% 30.09 in 10.0 mi SSW 5.8 mph - 0.00 in   Clear
11:54 PM 77.0 °F - 68.0 °F 74% 30.08 in 10.0 mi SSE 4.6 mph - 0.00 in   Clear